Weather History for Edwards AFB, CA

Change the Weather History Date:

Thursday, July 18, 2013

  Actual Average Record
Temperature  
Mean Temperature 81 °F -  
Max Temperature 103 °F 97 °F 113 °F (1998)
Min Temperature 60 °F 65 °F 57 °F (2011)
Cooling Degree Days 16    
Growing Degree Days 31 (Base 50)    
Moisture  
Dew Point 33 °F    
Average Humidity 20    
Maximum Humidity 34    
Minimum Humidity 4    
Precipitation  
Precipitation 0.00 in - - ()
Sea Level Pressure  
Sea Level Pressure 29.94 in    
Wind  
Wind Speed 7 mph (SW)    
Max Wind Speed 23 mph    
Max Gust Speed 28 mph    
Visibility 10 miles    
Events      
Averages and records for this station are not official NWS values.
T = Trace of Precipitation, MM = Missing Value Source: NWS Daily Summary

Daily Weather History Graph

Daily Weather History Graph

Search for Another Location

Airport:

Trip Planner

Search our weather history database for the weather conditions in past years. The results will help you decide how hot, cold, wet, or windy it might be!

Date:

Astronomy

Jul. 18, 2013 Rise Set
Actual Time 5:51 AM PDT 8:03 PM PDT
Civil Twilight 5:22 AM PDT 8:32 PM PDT
Nautical Twilight 4:47 AM PDT 9:07 PM PDT
Astronomical Twilight 4:09 AM PDT 9:45 PM PDT
Moon 4:07 PM PDT (7/18) 1:43 AM PDT (7/18)
Length of Visible Light 15h 09m
Length of Day
14h 12m
Waxing Gibbous, 78% of the Moon is Illuminated
Jul 18
Waxing Gibbous
Jul 22
Full
Jul 29
Last Quarter
Aug 6
New
Aug 14
First Quarter

Hourly Weather History & Observations

Time (PDT) Temp. Dew Point Humidity Pressure Visibility Wind Dir Wind Speed Gust Speed Precip Events Conditions
12:58 AM 71.1 °F 40.6 °F 33% 29.93 in 10.0 mi SW 11.5 mph - N/A   Clear
1:58 AM 69.3 °F 36.3 °F 30% 29.93 in 10.0 mi SW 10.4 mph - N/A   Clear
2:58 AM 67.5 °F 36.7 °F 32% 29.92 in 10.0 mi SW 9.2 mph - N/A   Clear
3:58 AM 65.7 °F 36.1 °F 34% 29.92 in 10.0 mi SW 8.1 mph - N/A   Clear
4:58 AM 63.0 °F 33.8 °F 34% 29.92 in 10.0 mi SSW 5.8 mph - N/A   Clear
5:58 AM 60.6 °F 30.9 °F 33% 30.01 in 70.0 mi South 2.3 mph - N/A   Partly Cloudy
6:58 AM 63.5 °F 34.2 °F 33% 30.02 in 50.0 mi North 1.2 mph - N/A   Scattered Clouds
7:58 AM 66.9 °F 33.3 °F 29% 30.03 in 50.0 mi Calm Calm - N/A   Scattered Clouds
8:58 AM 72.9 °F 34.5 °F 25% 30.04 in 50.0 mi SE 3.5 mph - N/A   Scattered Clouds
9:58 AM 79.2 °F 35.2 °F 20% 30.03 in 50.0 mi North 2.3 mph - N/A   Scattered Clouds
10:50 AM 86.0 °F 35.6 °F 17% 30.01 in 50.0 mi Variable 1.2 mph - N/A   Mostly Cloudy
10:58 AM 86.0 °F 34.5 °F 16% 30.02 in 50.0 mi SSW 3.5 mph - N/A   Mostly Cloudy
11:48 AM 89.6 °F 33.8 °F 14% 30.00 in 50.0 mi Variable 4.6 mph - N/A   Scattered Clouds
11:58 AM 90.3 °F 33.8 °F 13% 30.00 in 50.0 mi Variable 1.2 mph - N/A   Scattered Clouds
12:58 PM 94.8 °F 30.7 °F 10% 29.98 in 50.0 mi NNW 2.3 mph - N/A   Scattered Clouds
1:58 PM 98.1 °F 25.3 °F 8% 29.95 in 45.0 mi Variable 3.5 mph - N/A   Scattered Clouds
2:58 PM 99.1 °F 25.5 °F 7% 29.92 in 45.0 mi Variable 4.6 mph - N/A   Scattered Clouds
3:58 PM 100.8 °F 23.0 °F 6% 29.89 in 40.0 mi Variable 5.8 mph - N/A   Scattered Clouds
4:58 PM 102.7 °F 14.9 °F 4% 29.87 in 40.0 mi WSW 9.2 mph - N/A   Scattered Clouds
5:58 PM 102.6 °F 8.4 °F 4% 29.85 in 40.0 mi WSW 12.7 mph - N/A   Scattered Clouds
6:12 PM 102.2 °F 35.6 °F 10% 29.85 in 40.0 mi West 23.0 mph - N/A   Scattered Clouds
6:58 PM 97.9 °F 39.4 °F 13% 29.86 in 40.0 mi WSW 19.6 mph 27.6 mph N/A   Scattered Clouds
7:58 PM 91.0 °F 45.0 °F 20% 29.88 in 40.0 mi West 13.8 mph - N/A   Scattered Clouds
8:58 PM 86.0 °F 44.2 °F 23% 29.91 in 30.0 mi SW 9.2 mph - N/A   Scattered Clouds
9:58 PM 81.3 °F 42.8 °F 26% 29.93 in 30.0 mi Variable 1.2 mph - N/A   Scattered Clouds
10:58 PM 79.3 °F 41.0 °F 25% 29.86 in 10.0 mi SW 8.1 mph - N/A   Clear
11:58 PM 77.2 °F 39.2 °F 26% 29.84 in 10.0 mi SW 11.5 mph - N/A   Clear